SWR1455 LWSK-LSZH

Flight info

Callsign SWR1455
Flight time N/A
Altitude 30000
Route GOSTI DCT DBK DCT LSJ DCT TES DCT RESIA DCT KELIP
Aircraft B463/M-SDFGRY/S

Departure

Time 2026-04-26 08:32
Airport Skopje International Airport (LWSK)

Arrival

Time N/A
Airport Zürich Airport (LSZH)
Time Latitude Longitude Altitude Speed Heading
2026-04-26 08:19 41.96142 21.62563 783 ft 0 kts 79°
2026-04-26 08:25 41.96140 21.62552 783 ft 2 kts 79°
2026-04-26 08:25 41.96138 21.62535 783 ft 2 kts 79°
2026-04-26 08:25 41.96135 21.62518 783 ft 2 kts 79°
2026-04-26 08:26 41.96133 21.62502 783 ft 2 kts 77°
2026-04-26 08:26 41.96130 21.62485 783 ft 2 kts 67°
2026-04-26 08:26 41.96123 21.62470 783 ft 2 kts 49°
2026-04-26 08:26 41.96114 21.62459 783 ft 2 kts 37°
2026-04-26 08:27 41.96104 21.62448 783 ft 2 kts 37°
2026-04-26 08:27 41.96093 21.62438 783 ft 2 kts 36°
2026-04-26 08:27 41.96082 21.62430 783 ft 2 kts 17°
2026-04-26 08:27 41.96076 21.62428 783 ft 0 kts
2026-04-26 08:28 41.96078 21.62428 783 ft 2 kts
2026-04-26 08:29 41.96113 21.62420 783 ft 8 kts 347°
2026-04-26 08:29 41.96160 21.62406 783 ft 6 kts 347°
2026-04-26 08:29 41.96204 21.62393 783 ft 8 kts 347°
2026-04-26 08:29 41.96275 21.62371 784 ft 13 kts 346°
2026-04-26 08:30 41.96378 21.62336 784 ft 17 kts 346°
2026-04-26 08:30 41.96504 21.62284 785 ft 18 kts 321°
2026-04-26 08:30 41.96514 21.62144 786 ft 14 kts 261°
2026-04-26 08:30 41.96475 21.62051 785 ft 13 kts 191°
2026-04-26 08:31 41.96346 21.62078 785 ft 32 kts 166°
2026-04-26 08:31 41.95945 21.62220 782 ft 86 kts 166°
2026-04-26 08:31 41.95220 21.62469 779 ft 128 kts 165°
2026-04-26 08:31 41.94279 21.62806 901 ft 144 kts 163°
2026-04-26 08:32 41.93315 21.63207 1194 ft 146 kts 163°
2026-04-26 08:32 41.92318 21.63578 1439 ft 153 kts 165°
2026-04-26 08:32 41.91239 21.63892 1780 ft 165 kts 168°
2026-04-26 08:32 41.90075 21.64209 2180 ft 175 kts 168°
2026-04-26 08:33 41.88837 21.64550 2590 ft 188 kts 166°
2026-04-26 08:33 41.87512 21.64988 2916 ft 204 kts 165°
2026-04-26 08:33 41.86120 21.65466 3272 ft 216 kts 166°
2026-04-26 08:33 41.84612 21.65893 3788 ft 227 kts 163°
2026-04-26 08:34 41.83198 21.66907 4319 ft 235 kts 135°
2026-04-26 08:34 41.82315 21.68805 4491 ft 250 kts 104°
2026-04-26 08:34 41.82259 21.71112 4963 ft 250 kts 73°
2026-04-26 08:34 41.83044 21.73128 5549 ft 243 kts 44°
2026-04-26 08:35 41.84447 21.74280 6095 ft 236 kts 11°
2026-04-26 08:35 41.86053 21.74116 6542 ft 235 kts 336°
2026-04-26 08:35 41.87345 21.72828 6934 ft 238 kts 311°
2026-04-26 08:35 41.88351 21.71031 7357 ft 242 kts 307°
2026-04-26 08:36 41.89331 21.69178 7736 ft 247 kts 307°
2026-04-26 08:36 41.90314 21.67248 8038 ft 253 kts 305°
2026-04-26 08:36 41.91293 21.65269 8356 ft 257 kts 304°
2026-04-26 08:36 41.91984 21.63050 8761 ft 261 kts 283°
2026-04-26 08:37 41.92081 21.60598 9091 ft 266 kts 270°
2026-04-26 08:37 41.91992 21.58082 9374 ft 272 kts 269°
2026-04-26 08:37 41.91686 21.55560 9719 ft 276 kts 256°
2026-04-26 08:37 41.91157 21.53079 10079 ft 277 kts 258°
2026-04-26 08:38 41.90675 21.50567 10413 ft 279 kts 257°
2026-04-26 08:38 41.90150 21.48076 10719 ft 281 kts 256°
2026-04-26 08:38 41.89570 21.45568 11058 ft 282 kts 255°
2026-04-26 08:38 41.88971 21.43064 11374 ft 282 kts 254°
2026-04-26 08:39 41.88365 21.40545 11698 ft 284 kts 254°
2026-04-26 08:39 41.87754 21.38021 12020 ft 285 kts 255°
2026-04-26 08:39 41.87140 21.35490 12316 ft 286 kts 254°
2026-04-26 08:39 41.86533 21.32944 12670 ft 287 kts 255°
2026-04-26 08:40 41.86133 21.31255 12912 ft 287 kts 254°
2026-04-26 08:40 41.85529 21.28690 13247 ft 288 kts 255°
2026-04-26 08:40 41.84919 21.26125 13612 ft 289 kts 254°
2026-04-26 08:40 41.84296 21.23552 13957 ft 290 kts 254°
2026-04-26 08:41 41.83674 21.20983 14266 ft 290 kts 255°
2026-04-26 08:41 41.83064 21.18404 14552 ft 291 kts 255°
2026-04-26 08:41 41.82454 21.15812 14847 ft 291 kts 255°
2026-04-26 08:41 41.81836 21.13223 15158 ft 292 kts 255°
2026-04-26 08:42 41.81454 21.10580 15493 ft 287 kts 276°
2026-04-26 08:42 41.81878 21.08004 15837 ft 283 kts 289°
2026-04-26 08:42 41.82521 21.05503 16157 ft 283 kts 291°
2026-04-26 08:42 41.83211 21.03058 16478 ft 286 kts 292°
2026-04-26 08:43 41.83955 21.00564 16815 ft 290 kts 293°
2026-04-26 08:43 41.84727 20.98003 17154 ft 294 kts 293°
2026-04-26 08:43 41.85482 20.95476 17491 ft 297 kts 293°
2026-04-26 08:43 41.86240 20.92882 17826 ft 300 kts 292°
2026-04-26 08:44 41.86993 20.90267 18162 ft 302 kts 292°
2026-04-26 08:44 41.87743 20.87632 18488 ft 304 kts 291°
2026-04-26 08:44 41.88484 20.84943 18793 ft 309 kts 291°
2026-04-26 08:44 41.89225 20.82225 19079 ft 312 kts 291°
2026-04-26 08:45 41.89985 20.79480 19350 ft 315 kts 291°
2026-04-26 08:45 41.90746 20.76716 19639 ft 317 kts 291°
2026-04-26 08:45 41.91503 20.73931 19942 ft 318 kts 291°
2026-04-26 08:45 41.92270 20.71135 20255 ft 320 kts 291°
2026-04-26 08:46 41.93045 20.68328 20562 ft 321 kts 291°
2026-04-26 08:46 41.93816 20.65515 20880 ft 322 kts 291°
2026-04-26 08:46 41.94581 20.62715 21181 ft 323 kts 291°
2026-04-26 08:46 41.95356 20.59882 21503 ft 324 kts 290°
2026-04-26 08:47 41.96132 20.57034 21811 ft 324 kts 290°
2026-04-26 08:47 41.96909 20.54186 22130 ft 325 kts 290°
2026-04-26 08:47 41.97688 20.51334 22451 ft 325 kts 290°
2026-04-26 08:47 41.98470 20.48477 22749 ft 325 kts 290°
2026-04-26 08:48 41.99252 20.45624 23064 ft 325 kts 290°
2026-04-26 08:48 42.00035 20.42768 23414 ft 325 kts 290°
2026-04-26 08:48 42.00814 20.39919 23746 ft 324 kts 290°
2026-04-26 08:48 42.01593 20.37081 24030 ft 323 kts 290°
2026-04-26 08:49 42.02372 20.34243 24310 ft 322 kts 290°
2026-04-26 08:49 42.03139 20.31458 24577 ft 321 kts 290°
2026-04-26 08:49 42.03913 20.28649 24863 ft 319 kts 290°
2026-04-26 08:49 42.04680 20.25850 25160 ft 318 kts 290°
2026-04-26 08:50 42.05441 20.23065 25446 ft 316 kts 290°
2026-04-26 08:50 42.06186 20.20292 25733 ft 313 kts 290°
2026-04-26 08:50 42.06916 20.17537 26040 ft 311 kts 289°
2026-04-26 08:50 42.07648 20.14814 26337 ft 308 kts 290°
2026-04-26 08:51 42.09102 20.09458 26911 ft 301 kts 290°
2026-04-26 08:51 42.09797 20.06858 27204 ft 297 kts 289°
2026-04-26 08:51 42.10494 20.04227 27514 ft 293 kts 289°
2026-04-26 08:52 42.11165 20.01695 27819 ft 289 kts 289°
2026-04-26 08:52 42.11835 19.99165 28104 ft 284 kts 289°
2026-04-26 08:52 42.12498 19.96676 28421 ft 280 kts 289°
2026-04-26 08:52 42.13154 19.94230 28752 ft 275 kts 289°
2026-04-26 08:53 42.13797 19.91821 29067 ft 271 kts 289°
2026-04-26 08:53 42.14428 19.89449 29394 ft 266 kts 289°
2026-04-26 08:53 42.15049 19.87129 29704 ft 261 kts 289°
2026-04-26 08:53 42.15662 19.84840 29932 ft 259 kts 289°
2026-04-26 08:54 42.16274 19.82547 30030 ft 261 kts 289°
2026-04-26 08:54 42.16886 19.80251 30052 ft 265 kts 289°
2026-04-26 08:54 42.17512 19.77902 30071 ft 268 kts 289°
2026-04-26 08:54 42.18144 19.75519 30085 ft 272 kts 289°
2026-04-26 08:55 42.18786 19.73094 30100 ft 276 kts 289°
2026-04-26 08:55 42.19435 19.70639 30118 ft 280 kts 289°
2026-04-26 08:55 42.20095 19.68146 30103 ft 284 kts 289°
2026-04-26 08:55 42.20764 19.65622 30102 ft 287 kts 289°
2026-04-26 08:56 42.21441 19.63074 30098 ft 290 kts 289°
2026-04-26 08:56 42.22128 19.60494 30106 ft 294 kts 289°
2026-04-26 08:56 42.22824 19.57879 30117 ft 297 kts 289°
2026-04-26 08:57 42.24225 19.52580 30112 ft 305 kts 289°
2026-04-26 08:57 42.25675 19.47099 30097 ft 313 kts 289°
2026-04-26 08:58 42.27159 19.41473 30099 ft 322 kts 289°
2026-04-26 08:58 42.28671 19.35737 30096 ft 330 kts 289°
2026-04-26 08:59 42.30230 19.29808 30087 ft 339 kts 289°
2026-04-26 08:59 42.31812 19.23730 30086 ft 347 kts 289°
2026-04-26 09:00 42.33429 19.17509 30087 ft 355 kts 289°
2026-04-26 09:00 42.35075 19.11126 30098 ft 363 kts 289°
2026-04-26 09:01 42.36753 19.04649 30084 ft 371 kts 289°
2026-04-26 09:01 42.38465 18.97995 30085 ft 379 kts 289°
2026-04-26 09:02 42.40213 18.91197 30088 ft 386 kts 289°
2026-04-26 09:02 42.41980 18.84263 30082 ft 393 kts 289°
2026-04-26 09:03 42.43789 18.77213 30094 ft 400 kts 289°
2026-04-26 09:03 42.45607 18.70090 30090 ft 406 kts 289°
2026-04-26 09:04 42.47456 18.62818 30086 ft 409 kts 289°
2026-04-26 09:04 42.49286 18.55531 30070 ft 407 kts 289°
2026-04-26 09:05 42.51120 18.48282 30102 ft 407 kts 289°
2026-04-26 09:05 42.52954 18.41021 30106 ft 406 kts 289°
2026-04-26 09:06 42.54771 18.33766 30098 ft 406 kts 289°
2026-04-26 09:06 42.56783 18.26675 30098 ft 405 kts 296°
2026-04-26 09:07 42.59709 18.20150 30098 ft 405 kts 304°
2026-04-26 09:07 42.63061 18.13983 30091 ft 405 kts 306°
2026-04-26 09:08 42.66480 18.07910 30104 ft 405 kts 306°
2026-04-26 09:08 42.69868 18.01790 30092 ft 405 kts 306°
2026-04-26 09:09 42.73249 17.95654 30097 ft 405 kts 306°
2026-04-26 09:09 42.76602 17.89482 30093 ft 405 kts 306°
2026-04-26 09:10 42.79941 17.83354 30086 ft 405 kts 305°
2026-04-26 09:10 42.83283 17.77172 30083 ft 406 kts 306°
2026-04-26 09:11 42.86642 17.70981 30094 ft 406 kts 306°
2026-04-26 09:11 42.89983 17.64780 30094 ft 406 kts 306°
2026-04-26 09:12 42.93334 17.58569 30086 ft 406 kts 305°
2026-04-26 09:12 42.96675 17.52362 30093 ft 406 kts 306°
2026-04-26 09:13 43.00012 17.46145 30106 ft 406 kts 305°
2026-04-26 09:13 43.03349 17.39908 30086 ft 406 kts 306°
2026-04-26 09:14 43.06685 17.33663 30086 ft 406 kts 305°
2026-04-26 09:14 43.10011 17.27429 30090 ft 405 kts 305°
2026-04-26 09:15 43.13336 17.21180 30088 ft 405 kts 305°
2026-04-26 09:15 43.16641 17.14991 30091 ft 405 kts 305°
2026-04-26 09:16 43.19955 17.08725 30092 ft 405 kts 306°
2026-04-26 09:16 43.23266 17.02477 30090 ft 405 kts 305°
2026-04-26 09:17 43.26586 16.96220 30089 ft 405 kts 306°
2026-04-26 09:17 43.29871 16.89980 30091 ft 405 kts 305°
2026-04-26 09:18 43.33187 16.83695 30108 ft 406 kts 306°
2026-04-26 09:18 43.36500 16.77395 30097 ft 407 kts 306°
2026-04-26 09:19 43.39807 16.71063 30088 ft 407 kts 306°
2026-04-26 09:19 43.43119 16.64730 30086 ft 408 kts 306°
2026-04-26 09:20 43.46432 16.58392 30089 ft 408 kts 306°
2026-04-26 09:20 43.49740 16.52039 30094 ft 408 kts 306°
2026-04-26 09:21 43.53031 16.45702 30112 ft 409 kts 306°
2026-04-26 09:21 43.56340 16.39312 30111 ft 410 kts 306°
2026-04-26 09:22 43.59656 16.32897 30108 ft 411 kts 306°
2026-04-26 09:22 43.62974 16.26475 30109 ft 411 kts 306°
2026-04-26 09:23 43.66267 16.20064 30103 ft 412 kts 306°
2026-04-26 09:23 43.69587 16.13609 30095 ft 412 kts 306°
2026-04-26 09:24 43.72889 16.07140 30098 ft 412 kts 306°
2026-04-26 09:24 43.76204 16.00661 30098 ft 412 kts 306°
2026-04-26 09:25 43.79520 15.94179 30099 ft 413 kts 306°
2026-04-26 09:25 43.82829 15.87674 30100 ft 413 kts 305°
2026-04-26 09:26 43.86136 15.81165 30093 ft 413 kts 306°
2026-04-26 09:26 43.89446 15.74635 30092 ft 414 kts 306°
2026-04-26 09:27 43.92189 15.69206 30101 ft 414 kts 306°
2026-04-26 09:27 43.95488 15.62665 30098 ft 414 kts 306°
2026-04-26 09:28 43.98783 15.56114 30106 ft 414 kts 306°
2026-04-26 09:28 44.02079 15.49550 30103 ft 414 kts 306°
2026-04-26 09:29 44.05367 15.42985 30106 ft 414 kts 306°
2026-04-26 09:29 44.08633 15.36445 30104 ft 414 kts 305°
2026-04-26 09:30 44.11917 15.29856 30103 ft 414 kts 306°
2026-04-26 09:30 44.15205 15.23253 30108 ft 414 kts 305°
2026-04-26 09:31 44.18483 15.16650 30112 ft 414 kts 306°
2026-04-26 09:31 44.21759 15.10032 30105 ft 415 kts 306°
2026-04-26 09:32 44.25015 15.03447 30099 ft 415 kts 306°
2026-04-26 09:32 44.28293 14.96808 30099 ft 414 kts 306°
2026-04-26 09:33 44.31559 14.90184 30099 ft 414 kts 306°
2026-04-26 09:33 44.34828 14.83549 30103 ft 414 kts 305°
2026-04-26 09:34 44.38065 14.76962 30113 ft 414 kts 305°
2026-04-26 09:34 44.41326 14.70261 30100 ft 414 kts 305°
2026-04-26 09:35 44.44557 14.63652 30099 ft 414 kts 305°
2026-04-26 09:35 44.47793 14.56981 30098 ft 414 kts 305°
2026-04-26 09:36 44.51037 14.50326 30105 ft 414 kts 305°
2026-04-26 09:36 44.54298 14.43644 30119 ft 414 kts 305°
2026-04-26 09:37 44.57532 14.37017 30111 ft 415 kts 305°
2026-04-26 09:37 44.60798 14.30333 30099 ft 415 kts 305°
2026-04-26 09:38 44.64064 14.23639 30098 ft 415 kts 305°
2026-04-26 09:38 44.67308 14.16929 30098 ft 414 kts 305°
2026-04-26 09:39 44.70533 14.10264 30098 ft 414 kts 305°
2026-04-26 09:39 44.73771 14.03557 30099 ft 414 kts 305°
2026-04-26 09:40 44.77001 13.96852 30098 ft 414 kts 304°
2026-04-26 09:40 44.80228 13.90148 30107 ft 414 kts 305°
2026-04-26 09:41 44.83424 13.83446 30111 ft 414 kts 305°
2026-04-26 09:41 44.86668 13.76666 30102 ft 414 kts 304°
2026-04-26 09:42 44.89891 13.69933 30100 ft 414 kts 305°
2026-04-26 09:42 44.93072 13.63211 30103 ft 414 kts 304°
2026-04-26 09:43 44.96286 13.56458 30105 ft 414 kts 304°
2026-04-26 09:43 44.99486 13.49711 30106 ft 414 kts 304°
2026-04-26 09:44 45.02675 13.42935 30114 ft 414 kts 304°
2026-04-26 09:44 45.05869 13.36181 30115 ft 413 kts 304°
2026-04-26 09:45 45.09052 13.29393 30111 ft 413 kts 305°
2026-04-26 09:45 45.12234 13.22620 30115 ft 413 kts 304°
2026-04-26 09:46 45.15384 13.15882 30113 ft 413 kts 304°
2026-04-26 09:46 45.18563 13.09070 30114 ft 413 kts 304°
2026-04-26 09:47 45.21744 13.02279 30116 ft 413 kts 304°
2026-04-26 09:47 45.24908 12.95463 30116 ft 413 kts 304°
2026-04-26 09:48 45.28075 12.88624 30115 ft 413 kts 304°
2026-04-26 09:48 45.31209 12.81845 30115 ft 413 kts 304°
2026-04-26 09:49 45.34369 12.75003 30111 ft 413 kts 304°
2026-04-26 09:49 45.37523 12.68168 30107 ft 413 kts 304°
2026-04-26 09:50 45.40677 12.61321 30105 ft 413 kts 304°
2026-04-26 09:50 45.43821 12.54492 30103 ft 413 kts 304°
2026-04-26 09:51 45.46957 12.47668 30111 ft 414 kts 304°
2026-04-26 09:51 45.50115 12.40794 30106 ft 414 kts 304°
2026-04-26 09:52 45.53226 12.33875 30107 ft 414 kts 302°
2026-04-26 09:52 45.57725 12.23339 30103 ft 414 kts 302°
2026-04-26 09:53 45.60710 12.16285 30106 ft 415 kts 302°
2026-04-26 09:53 45.63695 12.09222 30110 ft 415 kts 302°
2026-04-26 09:54 45.66679 12.02165 30113 ft 415 kts 302°
2026-04-26 09:54 45.69672 11.95103 30114 ft 415 kts 302°
2026-04-26 09:55 45.72648 11.88069 30114 ft 415 kts 302°
2026-04-26 09:55 45.75652 11.80974 30114 ft 415 kts 302°
2026-04-26 09:56 45.78651 11.73897 30119 ft 416 kts 302°
2026-04-26 09:56 45.81633 11.66868 30130 ft 416 kts 302°
2026-04-26 09:57 45.84642 11.59708 30145 ft 416 kts 301°
2026-04-26 09:57 45.87585 11.52616 30154 ft 416 kts 302°
2026-04-26 09:58 45.90554 11.45482 30162 ft 417 kts 301°
2026-04-26 09:58 45.93516 11.38311 30168 ft 417 kts 301°
2026-04-26 09:59 45.96482 11.31122 30188 ft 418 kts 301°
2026-04-26 09:59 45.99448 11.23941 30195 ft 418 kts 301°
2026-04-26 10:00 46.02438 11.16727 30202 ft 418 kts 301°
2026-04-26 10:00 46.05420 11.09534 30218 ft 419 kts 301°
2026-04-26 10:01 46.08390 11.02383 30242 ft 419 kts 301°
2026-04-26 10:01 46.11327 10.95126 30237 ft 419 kts 300°
2026-04-26 10:02 46.14299 10.87863 30239 ft 419 kts 300°
2026-04-26 10:02 46.17218 10.80652 30241 ft 419 kts 300°
2026-04-26 10:03 46.20153 10.73369 30228 ft 419 kts 300°
2026-04-26 10:03 46.23090 10.66111 30221 ft 419 kts 300°
2026-04-26 10:04 46.26032 10.58849 30230 ft 419 kts 300°
2026-04-26 10:04 46.28977 10.51582 30236 ft 420 kts 300°
2026-04-26 10:05 46.31938 10.44292 30220 ft 420 kts 300°
2026-04-26 10:05 46.34871 10.36982 30225 ft 420 kts 299°
2026-04-26 10:06 46.37782 10.29637 30225 ft 420 kts 299°
2026-04-26 10:06 46.40700 10.22280 30216 ft 421 kts 299°
2026-04-26 10:07 46.43629 10.14932 30230 ft 421 kts 299°
2026-04-26 10:07 46.46522 10.07595 30237 ft 421 kts 298°
2026-04-26 10:08 46.49413 10.00219 30245 ft 420 kts 298°
2026-04-26 10:08 46.52242 9.92812 30247 ft 420 kts 298°
2026-04-26 10:09 46.54593 9.86621 30233 ft 420 kts 297°
2026-04-26 10:09 46.57836 9.78088 30106 ft 407 kts 297°
2026-04-26 10:10 46.59203 9.74487 29840 ft 406 kts 298°
2026-04-26 10:10 46.60568 9.70891 29590 ft 403 kts 297°
2026-04-26 10:10 46.61912 9.67316 29310 ft 401 kts 297°
2026-04-26 10:10 46.63248 9.63761 29041 ft 400 kts 297°
2026-04-26 10:11 46.64585 9.60208 28758 ft 398 kts 297°
2026-04-26 10:11 46.65900 9.56671 28587 ft 397 kts 297°
2026-04-26 10:11 46.67206 9.53174 28356 ft 396 kts 297°
2026-04-26 10:11 46.68530 9.49656 28114 ft 395 kts 297°
2026-04-26 10:12 46.69837 9.46139 27886 ft 393 kts 297°
2026-04-26 10:12 46.71145 9.42639 27659 ft 393 kts 297°
2026-04-26 10:12 46.72452 9.39130 27532 ft 392 kts 297°
2026-04-26 10:12 46.73737 9.35687 27416 ft 392 kts 297°
2026-04-26 10:13 46.75027 9.32185 27303 ft 391 kts 296°
2026-04-26 10:13 46.76314 9.28678 27193 ft 390 kts 297°
2026-04-26 10:13 46.77607 9.25196 27046 ft 390 kts 297°
2026-04-26 10:13 46.78911 9.21725 26913 ft 389 kts 297°
2026-04-26 10:14 46.80251 9.18274 26652 ft 393 kts 297°
2026-04-26 10:14 46.81567 9.14766 26389 ft 396 kts 297°
2026-04-26 10:14 46.82877 9.11201 26133 ft 400 kts 296°
2026-04-26 10:14 46.84236 9.07697 25869 ft 403 kts 304°
2026-04-26 10:15 46.86236 9.04807 25624 ft 410 kts 324°
2026-04-26 10:15 46.88749 9.02810 25383 ft 414 kts 332°
2026-04-26 10:15 46.91361 9.00990 25169 ft 417 kts 333°
2026-04-26 10:15 46.94008 8.99172 24939 ft 420 kts 332°
2026-04-26 10:16 46.95740 8.97930 24784 ft 418 kts 332°
2026-04-26 10:16 46.98345 8.96031 24552 ft 415 kts 332°
2026-04-26 10:16 47.00918 8.94144 24314 ft 412 kts 332°
2026-04-26 10:16 47.03461 8.92269 24064 ft 408 kts 332°
2026-04-26 10:17 47.05999 8.90395 23829 ft 405 kts 332°
2026-04-26 10:17 47.08476 8.88564 23571 ft 402 kts 331°
2026-04-26 10:17 47.10959 8.86716 23273 ft 398 kts 331°
2026-04-26 10:17 47.13445 8.84862 22980 ft 394 kts 332°
2026-04-26 10:18 47.15882 8.83050 22698 ft 390 kts 332°
2026-04-26 10:18 47.18255 8.81285 22396 ft 385 kts 332°
2026-04-26 10:18 47.20598 8.79577 21872 ft 364 kts 332°
2026-04-26 10:18 47.22861 8.77950 20875 ft 360 kts 333°
2026-04-26 10:19 47.25131 8.76340 19779 ft 362 kts 333°
2026-04-26 10:19 47.27379 8.74736 18930 ft 357 kts 333°
2026-04-26 10:19 47.29582 8.73136 18304 ft 344 kts 333°
2026-04-26 10:19 47.31666 8.71648 17623 ft 320 kts 334°
2026-04-26 10:20 47.33643 8.70306 16665 ft 307 kts 334°
2026-04-26 10:20 47.35595 8.69004 15312 ft 310 kts 334°
2026-04-26 10:20 47.37573 8.67674 13880 ft 315 kts 334°
2026-04-26 10:20 47.39534 8.66331 12582 ft 312 kts 334°
2026-04-26 10:21 47.41445 8.65028 11516 ft 289 kts 334°
2026-04-26 10:21 47.43236 8.63812 10191 ft 280 kts 334°
2026-04-26 10:21 47.44948 8.62621 8898 ft 270 kts 334°
2026-04-26 10:21 47.46598 8.61327 7558 ft 266 kts 329°
2026-04-26 10:22 47.48150 8.59939 6537 ft 256 kts 326°
2026-04-26 10:22 47.49527 8.58365 5587 ft 245 kts 317°
2026-04-26 10:22 47.50699 8.56645 4843 ft 232 kts 315°
2026-04-26 10:22 47.51796 8.54938 4083 ft 224 kts 313°
2026-04-26 10:23 47.52475 8.53010 3534 ft 204 kts 277°
2026-04-26 10:23 47.52128 8.51099 3186 ft 186 kts 234°
2026-04-26 10:23 47.51110 8.50209 2720 ft 167 kts 178°
2026-04-26 10:23 47.50125 8.50818 2256 ft 151 kts 131°
2026-04-26 10:24 47.49422 8.51892 1845 ft 138 kts 130°
2026-04-26 10:24 47.48747 8.52839 1583 ft 129 kts 132°
2026-04-26 10:24 47.48123 8.53721 1413 ft 117 kts 133°